QPF
0.00 0.00 0.00 0.01 0.01 0.01 0.01 0.01 0.00 0.00 0.00 0.00 0.00 0.00 0.00 0.00 0.00 0.00 0.00 0.00 0.00 0.00 0.00 0.00 0.00 0.00 0.00 0.00 0.00 0.00 0.00 0.00 0.00 0.00 0.00 0.00 0.00 0.00 0.00 0.00 0.00 0.00 0.00 0.00 0.00
0.00 0.00 0.00 0.00 0.00 0.00 0.01 0.01 0.01 0.01 0.00 0.00 0.00 0.00 0.00 0.00 0.00 0.00 0.00 0.00 0.00 0.00 0.00 0.00 0.00 0.00 0.00 0.00 0.00 0.00 0.00 0.00 0.00 0.00 0.00 0.00 0.00 0.00 0.00 0.00 0.00 0.00 0.00 0.00 0.00
0.00 0.00 0.00 0.00 0.00 0.00 0.00 0.00 0.01 0.01 0.01 0.00 0.00 0.00 0.00 0.00 0.00 0.00 0.00 0.00 0.00 0.00 0.00 0.00 0.00 0.00 0.00 0.00 0.00 0.00 0.00 0.00 0.00 0.00 0.00 0.00 0.00 0.00 0.00 0.00 0.00 0.00 0.00 0.00 0.00
0.00 0.00 0.00 0.00 0.00 0.00 0.00 0.00 0.00 0.01 0.01 0.01 0.01 0.00 0.00 0.00 0.00 0.00 0.00 0.00 0.00 0.00 0.00 0.00 0.00 0.00 0.00 0.00 0.00 0.00 0.00 0.00 0.00 0.00 0.00 0.00 0.00 0.00 0.00 0.00 0.00 0.00 0.00 0.00 0.00
0.00 0.00 0.00 0.00 0.00 0.00 0.00 0.00 0.00 0.00 0.00 0.01 0.01 0.01 0.00 0.00 0.00 0.00 0.00 0.00 0.00 0.00 0.00 0.00 0.00 0.00 0.00 0.00 0.00 0.00 0.00 0.00 0.00 0.00 0.00 0.00 0.00 0.00 0.00 0.00 0.00 0.00 0.00 0.00 0.00
0.00 0.00 0.00 0.00 0.00 0.00 0.00 0.00 0.00 0.00 0.00 0.00 0.01 0.01 0.01 0.00 0.00 0.00 0.00 0.00 0.00 0.00 0.00 0.00 0.00 0.00 0.00 0.00 0.00 0.00 0.00 0.00 0.00 0.00 0.00 0.00 0.00 0.00 0.00 0.00 0.00 0.00 0.00 0.00 0.00
0.00 0.00 0.00 0.00 0.00 0.00 0.00 0.00 0.00 0.00 0.00 0.00 0.00 0.01 0.01 0.00 0.00 0.00 0.00 0.00 0.00 0.00 0.00 0.00 0.00 0.00 0.00 0.00 0.00 0.00 0.00 0.00 0.00 0.00 0.00 0.00 0.00 0.00 0.00 0.00 0.00 0.00 0.00 0.00 0.00
0.01 0.01 0.00 0.00 0.00 0.00 0.00 0.00 0.00 0.00 0.00 0.00 0.00 0.01 0.01 0.00 0.00 0.00 0.00 0.00 0.00 0.00 0.00 0.00 0.00 0.00 0.00 0.00 0.00 0.00 0.00 0.00 0.00 0.00 0.00 0.00 0.00 0.00 0.00 0.00 0.00 0.00 0.00 0.00 0.00
0.01 0.01 0.01 0.01 0.01 0.00 0.00 0.00 0.00 0.00 0.00 0.00 0.00 0.01 0.00 0.00 0.00 0.00 0.00 0.00 0.00 0.00 0.00 0.00 0.00 0.00 0.00 0.00 0.00 0.00 0.00 0.00 0.00 0.00 0.00 0.00 0.00 0.00 0.00 0.00 0.00 0.00 0.00 0.00 0.00
0.00 0.00 0.01 0.01 0.00 0.00 0.00 0.00 0.00 0.00 0.00 0.00 0.01 0.00 0.00 0.00 0.00 0.00 0.00 0.00 0.00 0.00 0.00 0.00 0.00 0.00 0.00 0.00 0.00 0.00 0.00 0.00 0.00 0.00 0.00 0.00 0.00 0.00 0.00 0.00 0.00 0.00 0.00 0.00 0.00
0.00 0.00 0.00 0.00 0.00 0.00 0.00 0.00 0.00 0.00 0.00 0.00 0.00 0.00 0.00 0.00 0.00 0.00 0.00 0.00 0.00 0.00 0.00 0.00 0.00 0.00 0.00 0.00 0.00 0.00 0.00 0.00 0.00 0.00 0.00 0.00 0.00 0.00 0.00 0.00 0.00 0.00 0.00 0.00 0.00
0.00 0.00 0.00 0.00 0.00 0.00 0.00 0.00 0.00 0.01 0.01 0.00 0.00 0.00 0.00 0.00 0.00 0.00 0.00 0.00 0.00 0.00 0.00 0.00 0.00 0.00 0.00 0.00 0.00 0.00 0.00 0.00 0.00 0.00 0.00 0.00 0.00 0.00 0.00 0.00 0.00 0.00 0.00 0.00 0.00
0.00 0.00 0.00 0.00 0.01 0.00 0.00 0.00 0.00 0.00 0.00 0.00 0.00 0.00 0.00 0.00 0.00 0.00 0.00 0.00 0.00 0.01 0.00 0.00 0.00 0.00 0.00 0.00 0.00 0.00 0.00 0.00 0.00 0.00 0.00 0.00 0.00 0.00 0.00 0.00 0.00 0.00 0.00 0.00 0.00
0.00 0.00 0.00 0.01 0.00 0.00 0.00 0.00 0.00 0.00 0.00 0.00 0.00 0.00 0.00 0.00 0.00 0.00 0.00 0.00 0.01 0.01 0.01 0.00 0.00 0.00 0.00 0.00 0.00 0.00 0.00 0.00 0.00 0.00 0.00 0.00 0.00 0.00 0.00 0.00 0.00 0.00 0.00 0.00 0.00
0.00 0.00 0.00 0.03 0.02 0.00 0.00 0.00 0.00 0.00 0.00 0.00 0.00 0.00 0.00 0.00 0.00 0.00 0.00 0.00 0.00 0.01 0.02 0.00 0.00 0.00 0.00 0.00 0.00 0.00 0.00 0.00 0.00 0.00 0.00 0.00 0.00 0.00 0.00 0.00 0.00 0.00 0.00 0.00 0.00
0.00 0.00 0.01 0.00 0.00 0.00 0.00 0.00 0.00 0.00 0.00 0.00 0.00 0.00 0.00 0.00 0.00 0.00 0.01 0.00 0.01 0.01 0.01 0.00 0.00 0.00 0.00 0.00 0.00 0.00 0.00 0.00 0.00 0.00 0.00 0.00 0.00 0.00 0.00 0.00 0.00 0.00 0.00 0.00 0.00
0.01 0.01 0.01 0.00 0.00 0.00 0.00 0.00 0.00 0.00 0.00 0.00 0.00 0.00 0.00 0.00 0.00 0.00 0.00 0.01 0.02 0.03 0.01 0.01 0.01 0.00 0.00 0.00 0.00 0.00 0.00 0.00 0.00 0.00 0.00 0.00 0.00 0.00 0.00 0.00 0.00 0.00 0.00 0.00 0.00
0.01 0.00 0.00 0.00 0.00 0.00 0.00 0.00 0.00 0.00 0.00 0.00 0.00 0.00 0.00 0.00 0.00 0.00 0.00 0.01 0.00 0.02 0.02 0.01 0.01 0.00 0.00 0.00 0.00 0.00 0.00 0.00 0.00 0.00 0.00 0.00 0.00 0.00 0.00 0.00 0.00 0.00 0.00 0.00 0.00
0.01 0.00 0.00 0.00 0.00 0.00 0.00 0.01 0.00 0.00 0.00 0.00 0.00 0.00 0.00 0.00 0.00 0.00 0.00 0.00 0.00 0.01 0.02 0.01 0.00 0.00 0.00 0.00 0.00 0.00 0.00 0.00 0.00 0.00 0.00 0.00 0.00 0.00 0.00 0.00 0.00 0.00 0.00 0.00 0.00
0.01 0.00 0.00 0.00 0.00 0.01 0.01 0.00 0.00 0.00 0.00 0.00 0.00 0.00 0.00 0.00 0.00 0.00 0.00 0.00 0.00 0.00 0.01 0.00 0.00 0.00 0.00 0.01 0.00 0.00 0.00 0.00 0.00 0.00 0.00 0.00 0.00 0.00 0.00 0.00 0.00 0.00 0.00 0.00 0.00
0.01 0.00 0.00 0.00 0.01 0.02 0.01 0.00 0.00 0.00 0.00 0.00 0.00 0.00 0.00 0.00 0.00 0.00 0.00 0.00 0.00 0.00 0.02 0.01 0.01 0.00 0.01 0.01 0.00 0.00 0.00 0.00 0.00 0.00 0.00 0.00 0.00 0.00 0.00 0.00 0.00 0.00 0.00 0.00 0.00
0.00 0.00 0.00 0.00 0.00 0.00 0.00 0.00 0.00 0.00 0.00 0.00 0.00 0.00 0.00 0.00 0.00 0.00 0.00 0.00 0.00 0.01 0.02 0.02 0.04 0.01 0.00 0.00 0.00 0.00 0.00 0.00 0.00 0.00 0.00 0.00 0.00 0.00 0.00 0.00 0.00 0.00 0.00 0.00 0.00
0.02 0.00 0.00 0.00 0.00 0.00 0.00 0.00 0.00 0.00 0.00 0.00 0.00 0.00 0.00 0.00 0.00 0.00 0.00 0.00 0.00 0.00 0.01 0.04 0.04 0.02 0.00 0.01 0.01 0.01 0.00 0.00 0.00 0.00 0.00 0.00 0.00 0.00 0.00 0.00 0.00 0.00 0.00 0.00 0.00
0.02 0.01 0.00 0.01 0.00 0.00 0.00 0.00 0.00 0.00 0.00 0.00 0.00 0.00 0.00 0.00 0.00 0.00 0.00 0.00 0.00 0.00 0.01 0.01 0.01 0.02 0.01 0.01 0.01 0.00 0.00 0.00 0.00 0.00 0.00 0.00 0.00 0.00 0.00 0.00 0.00 0.00 0.00 0.00 0.00
0.01 0.00 0.00 0.00 0.00 0.00 0.00 0.00 0.00 0.00 0.00 0.00 0.00 0.00 0.00 0.00 0.00 0.00 0.00 0.00 0.00 0.00 0.00 0.00 0.00 0.00 0.00 0.00 0.00 0.00 0.00 0.00 0.00 0.00 0.00 0.00 0.00 0.00 0.00 0.00 0.00 0.00 0.00 0.00 0.00
0.02 0.00 0.00 0.00 0.00 0.00 0.00 0.00 0.00 0.00 0.00 0.00 0.00 0.00 0.00 0.00 0.01 0.00 0.01 0.01 0.01 0.00 0.00 0.00 0.00 0.00 0.00 0.00 0.00 0.00 0.00 0.00 0.00 0.00 0.00 0.00 0.00 0.00 0.00 0.00 0.00 0.00 0.00 0.00 0.00
0.02 0.01 0.01 0.00 0.00 0.00 0.00 0.00 0.00 0.00 0.00 0.00 0.00 0.00 0.00 0.00 0.01 0.01 0.00 0.00 0.00 0.01 0.00 0.00 0.00 0.00 0.00 0.00 0.00 0.00 0.00 0.00 0.00 0.00 0.00 0.00 0.00 0.00 0.00 0.00 0.00 0.00 0.00 0.00 0.00
MSLP
1026.18 1025.83 1025.53 1025.23 1024.98 1024.54 1024.10 1023.52 1023.05 1022.65 1022.27 1021.97 1021.63 1021.13 1020.65 1020.00 1019.21 1018.39 1017.58 1016.91 1016.61 1016.37 1016.33 1015.95 1015.59 1015.53 1015.46 1014.85 1014.95 1014.46 1012.68 1010.81 1010.18 1010.00 1009.36 1009.94 1009.84 1009.86 1009.92 1009.50 1009.90 1010.34 1010.76 1011.81 1012.38
1026.48 1026.23 1026.08 1025.68 1025.39 1025.03 1024.53 1023.85 1023.21 1022.74 1022.33 1022.00 1021.60 1021.05 1020.62 1019.88 1018.79 1017.99 1017.51 1016.93 1016.61 1016.40 1016.27 1015.82 1015.32 1015.18 1014.98 1014.80 1014.47 1013.94 1012.19 1010.67 1010.62 1010.22 1009.91 1009.98 1010.06 1009.81 1009.77 1009.50 1009.55 1010.30 1011.43 1012.40 1012.98
1026.94 1026.62 1026.22 1025.82 1025.51 1025.06 1024.62 1024.20 1023.55 1023.02 1022.39 1022.07 1021.63 1021.18 1020.79 1019.99 1018.59 1017.54 1017.62 1017.05 1016.66 1016.36 1016.28 1015.98 1015.61 1015.21 1014.84 1014.66 1014.07 1013.37 1011.88 1011.33 1011.11 1010.90 1010.98 1010.51 1010.29 1010.26 1009.60 1009.17 1008.67 1009.16 1010.38 1012.03 1012.81
1027.08 1026.70 1026.31 1025.96 1025.56 1025.12 1024.63 1024.15 1023.78 1023.29 1022.80 1022.25 1021.76 1021.24 1020.93 1020.29 1018.97 1017.73 1017.79 1017.44 1017.00 1016.68 1016.44 1015.88 1015.48 1015.10 1014.43 1013.94 1013.75 1013.41 1012.33 1012.16 1011.61 1011.54 1011.34 1010.91 1010.44 1010.04 1009.77 1008.62 1009.22 1009.33 1009.92 1011.30 1012.19
1027.00 1026.79 1026.40 1026.03 1025.65 1025.28 1024.77 1024.26 1023.68 1023.28 1022.88 1022.50 1021.82 1021.47 1020.94 1020.49 1018.66 1017.62 1017.88 1017.81 1017.25 1016.99 1016.56 1016.06 1015.35 1014.84 1014.04 1013.64 1013.68 1013.24 1012.37 1012.19 1011.97 1011.99 1011.65 1011.37 1010.57 1009.98 1009.48 1009.25 1009.76 1010.02 1010.40 1010.82 1011.41
1026.69 1026.51 1026.24 1025.77 1025.28 1025.10 1024.55 1024.13 1023.68 1023.11 1022.72 1022.26 1021.72 1021.60 1021.10 1019.98 1017.96 1017.98 1017.90 1017.91 1018.08 1017.63 1016.67 1016.28 1015.35 1014.90 1014.34 1013.61 1013.25 1012.51 1012.41 1011.97 1011.95 1011.78 1011.75 1011.36 1010.36 1010.41 1008.86 1009.08 1009.32 1009.88 1009.91 1010.28 1010.75
1026.62 1026.31 1026.08 1025.82 1025.29 1024.87 1024.43 1023.90 1023.34 1022.78 1022.27 1021.91 1021.60 1021.45 1020.48 1018.91 1017.81 1017.72 1017.82 1017.81 1018.06 1017.95 1017.24 1016.29 1015.91 1015.32 1014.43 1013.48 1012.94 1012.68 1012.36 1011.92 1011.58 1011.56 1011.35 1011.43 1009.92 1008.73 1008.73 1008.78 1008.84 1009.04 1009.42 1009.68 1010.05
1026.92 1026.36 1025.94 1025.77 1025.23 1024.60 1024.11 1023.71 1023.09 1022.41 1021.39 1021.13 1021.18 1021.20 1019.43 1018.36 1017.80 1017.98 1017.48 1017.36 1017.40 1017.46 1017.48 1016.61 1016.17 1015.42 1014.58 1013.71 1012.96 1012.51 1012.24 1011.19 1010.24 1011.05 1011.01 1011.05 1007.79 1007.46 1007.75 1007.99 1007.90 1008.07 1008.25 1008.79 1009.15
1026.69 1026.40 1025.98 1025.56 1025.15 1024.51 1023.97 1023.44 1022.84 1021.72 1020.74 1020.36 1020.47 1020.78 1018.78 1018.29 1018.19 1017.67 1017.52 1017.18 1016.81 1016.45 1016.51 1016.22 1015.83 1014.74 1014.24 1013.70 1012.70 1011.65 1010.23 1010.47 1010.51 1010.65 1010.48 1010.19 1007.88 1007.18 1007.31 1007.64 1007.14 1007.11 1007.22 1007.67 1008.29
1026.52 1026.21 1025.71 1025.48 1025.04 1024.38 1023.69 1023.19 1022.07 1021.18 1021.00 1020.15 1020.48 1020.99 1019.03 1018.94 1018.48 1018.04 1017.65 1017.59 1017.09 1016.27 1016.07 1015.94 1015.24 1014.04 1013.05 1012.20 1009.51 1009.95 1010.33 1010.06 1009.57 1009.99 1010.37 1009.43 1007.97 1007.26 1007.64 1007.43 1006.78 1006.49 1006.55 1006.96 1007.16
1026.45 1025.95 1025.43 1025.39 1024.90 1024.22 1023.77 1022.80 1022.28 1021.87 1022.63 1022.49 1021.92 1021.27 1020.52 1019.02 1018.96 1018.20 1018.03 1017.60 1017.38 1016.58 1015.31 1015.08 1014.45 1011.05 1010.88 1010.89 1010.61 1009.79 1009.44 1008.93 1008.84 1009.76 1009.98 1008.88 1007.80 1006.63 1006.65 1006.46 1006.23 1005.96 1005.74 1005.83 1006.03
1026.02 1025.61 1025.45 1025.37 1024.74 1024.52 1024.28 1024.29 1024.99 1025.40 1023.06 1022.01 1021.36 1020.40 1019.58 1019.70 1018.69 1018.45 1018.72 1018.83 1017.47 1016.41 1015.81 1014.93 1011.23 1011.44 1011.62 1011.36 1010.79 1010.15 1009.52 1008.83 1009.50 1009.74 1009.87 1008.63 1007.28 1006.28 1005.78 1005.30 1004.97 1004.82 1004.36 1004.43 1004.91
1026.02 1025.73 1025.32 1025.14 1024.65 1024.79 1024.86 1025.10 1025.07 1024.90 1023.68 1021.08 1020.17 1019.79 1019.28 1019.14 1018.74 1018.46 1018.23 1017.60 1016.98 1016.42 1015.44 1013.74 1011.17 1011.84 1011.47 1011.06 1010.59 1009.33 1008.63 1009.15 1009.41 1009.92 1009.75 1008.96 1006.61 1005.21 1004.45 1004.21 1003.85 1003.72 1003.52 1003.33 1003.52
1025.90 1025.72 1025.22 1025.03 1024.92 1025.32 1025.23 1025.40 1025.00 1024.89 1023.60 1021.06 1019.90 1019.30 1019.29 1019.11 1019.09 1018.80 1017.51 1018.06 1017.05 1015.06 1014.92 1013.18 1012.21 1011.33 1010.88 1009.59 1010.08 1008.92 1009.35 1009.77 1009.99 1010.10 1008.80 1008.70 1005.19 1003.45 1003.30 1002.57 1002.39 1002.25 1002.42 1002.24 1002.49
1025.80 1025.46 1025.16 1024.91 1025.50 1025.66 1025.44 1025.34 1025.24 1025.11 1024.07 1020.58 1019.36 1019.06 1019.10 1019.61 1019.81 1016.97 1017.79 1016.90 1015.65 1014.74 1014.17 1010.48 1010.77 1010.53 1010.04 1008.70 1009.77 1008.59 1009.70 1009.99 1010.26 1009.95 1009.53 1008.07 1006.98 1001.54 1002.05 1001.35 1000.53 1000.85 1001.00 1001.05 1001.15
1025.82 1025.34 1025.08 1025.22 1025.55 1025.30 1025.41 1025.66 1025.56 1025.58 1023.37 1020.77 1019.43 1019.30 1019.16 1018.85 1018.55 1017.65 1016.72 1017.36 1015.77 1014.55 1013.27 1011.35 1010.80 1009.95 1008.35 1009.85 1009.53 1009.67 1010.05 1010.45 1010.34 1010.29 1009.17 1005.80 1006.10 1000.76 1000.38 1000.22 1000.08 999.90 999.83 999.93 1000.22
1025.62 1025.30 1024.97 1025.17 1025.09 1025.36 1025.57 1026.01 1026.31 1024.91 1023.17 1020.94 1019.94 1019.95 1019.70 1018.81 1017.84 1017.52 1017.51 1016.58 1016.83 1013.84 1012.06 1011.90 1010.62 1010.27 1009.37 1008.95 1009.21 1009.22 1009.13 1009.84 1010.39 1009.92 1005.62 1005.37 1004.96 1000.20 999.10 999.60 999.53 999.40 999.20 999.53 999.91
1025.36 1025.11 1024.81 1024.66 1024.85 1025.25 1025.78 1026.27 1025.41 1023.94 1022.91 1021.26 1020.80 1020.36 1019.85 1019.29 1018.42 1018.26 1017.33 1015.70 1014.27 1014.01 1011.79 1010.16 1009.64 1009.09 1008.43 1007.53 1007.46 1007.60 1006.91 1006.00 1006.22 1006.12 1004.71 1005.76 1002.45 999.60 999.62 999.07 998.96 998.88 999.04 999.44 999.97
1025.20 1024.91 1024.69 1024.45 1024.78 1025.12 1025.74 1025.34 1024.04 1023.25 1022.35 1021.83 1021.23 1020.51 1019.83 1019.64 1019.44 1018.10 1017.02 1015.84 1014.41 1013.93 1012.19 1010.07 1007.74 1007.42 1007.11 1007.19 1007.01 1006.56 1005.89 1004.08 1005.72 1006.26 1005.43 1002.99 1000.93 1000.39 999.38 998.98 998.99 998.85 999.08 999.25 999.53
1025.23 1025.11 1024.55 1024.71 1024.84 1025.20 1025.49 1024.48 1023.61 1023.10 1022.42 1022.14 1021.82 1021.38 1020.40 1019.87 1020.04 1019.06 1017.54 1015.72 1014.40 1013.41 1013.44 1011.39 1007.82 1005.88 1006.49 1006.59 1006.14 1005.19 1004.37 1005.48 1004.96 1004.53 1003.58 1000.94 1000.40 998.69 998.62 998.35 998.60 998.72 999.04 999.11 999.43
1025.14 1025.26 1024.68 1024.72 1024.96 1025.35 1025.01 1024.40 1023.53 1022.52 1022.43 1022.27 1021.54 1021.27 1020.91 1020.56 1020.00 1019.27 1017.35 1015.68 1014.43 1013.02 1012.28 1011.59 1009.32 1007.01 1005.75 1004.99 1004.32 1004.26 1004.39 1003.92 1003.33 1002.54 1001.75 1000.57 999.01 998.69 998.04 998.54 998.81 998.84 998.88 998.99 999.41
1025.49 1025.25 1024.77 1024.64 1025.20 1025.28 1024.81 1024.37 1023.48 1022.16 1022.14 1021.95 1021.75 1021.36 1020.91 1020.51 1019.81 1018.94 1017.14 1016.18 1014.83 1014.20 1012.10 1010.04 1008.36 1006.88 1006.02 1003.98 1003.51 1003.68 1003.38 1003.11 1002.37 1001.72 1000.92 1000.84 999.59 999.84 999.61 999.52 999.68 999.64 999.87 1000.02 1000.18
1025.04 1024.88 1024.89 1024.82 1024.49 1024.73 1024.60 1024.27 1023.63 1022.56 1021.85 1021.77 1021.42 1021.05 1020.79 1020.42 1019.74 1018.21 1016.47 1015.34 1014.54 1014.03 1012.69 1011.01 1007.98 1007.31 1005.86 1005.51 1004.23 1003.36 1003.12 1002.51 1001.53 1001.47 1001.08 1001.20 1000.04 1000.16 1000.22 1000.35 1000.39 1000.58 1000.93 1001.11 1001.49
1025.05 1024.66 1024.77 1024.45 1024.15 1024.14 1024.22 1023.58 1023.15 1022.38 1021.80 1021.47 1020.90 1020.70 1020.48 1019.69 1018.91 1017.35 1015.83 1014.85 1013.94 1013.21 1012.65 1012.02 1009.09 1006.90 1005.58 1004.45 1003.82 1003.28 1002.88 1002.38 1001.69 1001.43 1000.23 1000.21 1000.47 1000.67 1001.02 1001.07 1001.05 1001.38 1001.75 1001.78 1002.00
1024.39 1023.80 1023.76 1023.94 1023.69 1023.50 1023.38 1022.85 1022.39 1021.94 1021.59 1020.92 1020.15 1019.97 1019.95 1019.24 1018.11 1016.93 1015.97 1014.59 1013.80 1013.19 1012.65 1011.88 1010.17 1008.58 1006.84 1006.21 1005.21 1003.44 1002.78 1002.71 1002.13 1001.02 1001.21 1000.87 1001.22 1000.91 1001.45 1001.65 1001.79 1001.92 1002.17 1002.11 1002.57
1024.19 1023.83 1024.03 1023.30 1023.10 1022.94 1022.53 1021.74 1021.40 1020.30 1021.21 1019.64 1019.80 1019.01 1019.00 1018.81 1018.18 1017.01 1016.42 1014.95 1013.99 1013.51 1012.78 1011.68 1010.55 1009.72 1008.17 1007.18 1006.31 1004.98 1003.66 1003.05 1002.59 1001.96 1002.05 1002.17 1001.59 1001.57 1001.75 1001.92 1001.82 1002.11 1002.34 1002.20 1002.63
1023.35 1023.20 1022.87 1022.04 1021.91 1021.88 1020.75 1020.61 1019.75 1019.79 1018.98 1018.69 1018.67 1018.48 1018.14 1017.91 1017.22 1016.94 1016.35 1015.80 1014.93 1014.23 1012.96 1012.21 1011.16 1009.96 1009.37 1008.09 1007.00 1006.56 1005.59 1004.08 1002.83 1002.60 1002.46 1002.65 1002.13 1001.89 1001.99 1002.04 1001.96 1002.41 1002.35 1002.54 1002.69
Thickness
5554 5557 5558 5559 5560 5563 5566 5570 5573 5576 5579 5582 5584 5589 5595 5602 5608 5615 5620 5627 5630 5631 5631 5634 5637 5637 5637 5639 5637 5638 5644 5655 5666 5665 5684 5687 5689 5696 5702 5707 5706 5709 5710 5707 5709
5544 5545 5546 5549 5551 5553 5556 5561 5565 5569 5572 5573 5577 5582 5586 5593 5604 5609 5615 5619 5621 5624 5625 5627 5630 5632 5632 5632 5634 5635 5645 5660 5668 5674 5676 5681 5684 5692 5692 5699 5703 5704 5701 5699 5699
5534 5535 5537 5539 5542 5546 5549 5551 5555 5559 5563 5565 5568 5573 5576 5582 5595 5607 5604 5609 5613 5616 5617 5620 5621 5624 5623 5626 5630 5635 5645 5656 5657 5661 5663 5671 5676 5684 5690 5690 5711 5708 5707 5698 5696
5524 5526 5528 5530 5532 5535 5539 5543 5545 5548 5551 5556 5559 5564 5567 5572 5591 5593 5593 5597 5602 5605 5608 5612 5614 5614 5619 5620 5626 5624 5640 5641 5648 5649 5653 5661 5673 5678 5683 5702 5701 5707 5710 5700 5695
5514 5514 5517 5519 5521 5523 5527 5531 5535 5538 5541 5543 5550 5553 5560 5563 5573 5581 5581 5584 5589 5593 5597 5601 5606 5608 5613 5619 5617 5618 5633 5634 5639 5638 5645 5650 5664 5674 5681 5693 5691 5692 5695 5698 5698
5506 5506 5507 5510 5513 5512 5517 5520 5523 5528 5531 5534 5540 5542 5548 5554 5572 5569 5569 5571 5572 5576 5586 5589 5598 5601 5602 5609 5613 5625 5624 5631 5633 5637 5638 5643 5659 5657 5686 5690 5691 5687 5693 5698 5698
5498 5497 5497 5497 5500 5503 5504 5509 5513 5516 5519 5523 5526 5530 5541 5554 5559 5560 5558 5559 5559 5562 5569 5579 5582 5587 5595 5601 5611 5613 5613 5622 5628 5632 5634 5635 5646 5666 5681 5684 5685 5689 5690 5695 5698
5483 5486 5487 5486 5489 5495 5497 5498 5503 5508 5516 5516 5515 5516 5532 5543 5546 5547 5549 5553 5551 5552 5554 5562 5567 5575 5581 5593 5598 5601 5605 5613 5636 5627 5630 5631 5660 5683 5682 5681 5685 5691 5696 5694 5697
5472 5473 5474 5475 5476 5480 5484 5487 5493 5501 5509 5509 5508 5504 5520 5525 5524 5532 5538 5539 5544 5547 5549 5552 5555 5568 5573 5575 5585 5597 5613 5607 5616 5620 5625 5626 5655 5674 5675 5670 5682 5690 5696 5697 5696
5462 5462 5464 5462 5462 5465 5469 5474 5482 5492 5493 5495 5493 5486 5505 5496 5501 5506 5513 5521 5524 5532 5536 5539 5544 5558 5571 5577 5598 5600 5593 5604 5616 5619 5607 5620 5638 5662 5653 5658 5672 5683 5691 5691 5695
5450 5451 5450 5446 5447 5451 5454 5462 5468 5473 5462 5457 5460 5459 5463 5478 5480 5487 5488 5496 5504 5514 5527 5530 5533 5567 5582 5582 5588 5601 5604 5609 5621 5609 5602 5615 5628 5652 5656 5660 5666 5676 5687 5694 5698
5440 5440 5436 5433 5435 5434 5434 5432 5423 5419 5437 5449 5449 5452 5454 5452 5461 5465 5453 5452 5476 5493 5503 5509 5538 5560 5561 5563 5568 5577 5585 5599 5600 5595 5592 5607 5618 5641 5649 5659 5671 5678 5691 5700 5701
5427 5425 5423 5422 5423 5419 5416 5409 5406 5406 5413 5438 5433 5431 5435 5432 5440 5437 5440 5445 5451 5460 5480 5495 5540 5536 5540 5546 5553 5572 5583 5589 5590 5580 5580 5585 5610 5636 5651 5657 5669 5679 5690 5701 5706
5414 5410 5410 5410 5410 5399 5396 5389 5387 5385 5390 5413 5411 5408 5401 5395 5399 5406 5411 5409 5422 5449 5461 5475 5507 5519 5525 5546 5549 5558 5571 5568 5569 5567 5580 5580 5602 5642 5646 5659 5669 5680 5684 5697 5704
5401 5399 5396 5394 5388 5380 5376 5370 5365 5359 5348 5397 5391 5381 5376 5363 5351 5395 5380 5373 5410 5431 5429 5493 5493 5503 5509 5546 5540 5553 5551 5549 5553 5557 5558 5576 5571 5647 5650 5653 5679 5686 5688 5697 5705
5387 5385 5383 5379 5372 5368 5359 5350 5344 5333 5322 5363 5369 5352 5346 5353 5352 5354 5365 5356 5372 5395 5419 5458 5470 5490 5523 5513 5529 5532 5530 5530 5538 5540 5531 5591 5578 5634 5656 5658 5669 5682 5691 5698 5704
5374 5372 5370 5366 5362 5350 5340 5327 5314 5313 5321 5338 5338 5323 5320 5328 5339 5340 5335 5349 5338 5385 5399 5416 5436 5459 5484 5495 5507 5514 5522 5511 5508 5512 5567 5583 5577 5634 5663 5661 5668 5674 5685 5690 5697
5363 5362 5358 5355 5348 5335 5322 5308 5300 5303 5299 5324 5314 5308 5312 5316 5322 5319 5326 5347 5371 5361 5397 5412 5415 5446 5474 5490 5504 5506 5521 5532 5529 5545 5575 5546 5579 5626 5648 5657 5665 5672 5676 5681 5683
5355 5352 5347 5340 5331 5319 5304 5300 5303 5297 5303 5296 5297 5298 5306 5310 5300 5308 5321 5336 5361 5354 5391 5413 5432 5459 5465 5480 5489 5498 5499 5563 5518 5473 5539 5575 5603 5617 5637 5648 5650 5655 5662 5670 5679
5344 5339 5335 5325 5315 5302 5289 5295 5289 5284 5289 5289 5273 5285 5287 5297 5284 5294 5310 5339 5348 5362 5348 5363 5426 5461 5456 5462 5474 5494 5538 5503 5518 5527 5540 5586 5586 5620 5631 5643 5649 5653 5655 5662 5669
5332 5324 5323 5312 5299 5288 5283 5279 5273 5288 5285 5278 5282 5282 5285 5278 5285 5285 5308 5334 5347 5355 5362 5359 5393 5423 5452 5448 5474 5492 5484 5511 5540 5551 5559 5575 5602 5619 5638 5638 5639 5646 5651 5661 5665
5315 5314 5310 5300 5289 5265 5272 5259 5271 5288 5284 5276 5272 5274 5279 5282 5278 5282 5304 5320 5334 5342 5358 5383 5401 5413 5422 5472 5485 5486 5495 5512 5518 5530 5553 5554 5589 5586 5598 5612 5620 5630 5632 5638 5648
5308 5305 5295 5288 5284 5267 5252 5250 5256 5274 5281 5271 5270 5275 5276 5273 5266 5285 5308 5325 5331 5332 5346 5369 5405 5410 5423 5430 5452 5466 5485 5509 5537 5548 5537 5544 5575 5580 5585 5593 5602 5614 5615 5615 5618
5295 5296 5283 5277 5268 5262 5245 5258 5252 5264 5266 5267 5271 5274 5270 5272 5286 5291 5309 5319 5328 5333 5339 5340 5380 5412 5434 5453 5460 5459 5477 5499 5516 5513 5546 5549 5569 5573 5575 5583 5594 5596 5600 5607 5609
5286 5289 5280 5275 5263 5256 5254 5255 5258 5257 5263 5267 5268 5269 5267 5265 5276 5290 5304 5310 5322 5327 5330 5337 5353 5370 5401 5415 5426 5467 5473 5482 5488 5522 5519 5549 5534 5564 5563 5571 5574 5580 5589 5597 5593
5275 5273 5257 5265 5250 5248 5255 5259 5259 5267 5256 5267 5260 5273 5274 5265 5272 5280 5288 5307 5315 5324 5327 5334 5350 5353 5375 5389 5395 5423 5465 5473 5478 5504 5509 5501 5520 5540 5547 5555 5563 5568 5581 5593 5592
5268 5263 5259 5270 5253 5244 5260 5258 5269 5269 5276 5275 5269 5269 5268 5269 5282 5280 5285 5289 5298 5304 5323 5328 5339 5353 5360 5368 5388 5406 5411 5453 5482 5490 5503 5491 5522 5529 5537 5544 5553 5555 5571 5580 5587